Weather History for Boscobel, WI

Change the Weather History Date:

Monday, December 31, 2012

  Actual Average (KPDC) Record (KPDC)
Temperature  
Mean Temperature 17 °F -  
Max Temperature 33 °F 28 °F 58 °F (1965)
Min Temperature 1 °F 10 °F -20 °F (1976)
Degree Days  
Heating Degree Days 48    
Moisture  
Dew Point 10 °F    
Average Humidity 76    
Maximum Humidity 92    
Minimum Humidity 62    
Precipitation  
Precipitation 0.00 in - - ()
Sea Level Pressure  
Sea Level Pressure 30.13 in    
Wind  
Wind Speed 5 mph (WNW)    
Max Wind Speed 10 mph    
Max Gust Speed -    
Visibility 8 miles    
Events      
Averages and records for this station are not official NWS values.
T = Trace of Precipitation, MM = Missing Value Source: NWS Daily Summary

Daily Weather History Graph

Daily Weather History Graph

Search for Another Location

Airport:

Trip Planner

Search our weather history database for the weather conditions in past years. The results will help you decide how hot, cold, wet, or windy it might be!

Date:

Astronomy

Dec. 31, 2012 Rise Set
Actual Time 7:34 AM CST 4:37 PM CST
Civil Twilight 7:02 AM CST 5:10 PM CST
Nautical Twilight 6:26 AM CST 5:45 PM CST
Astronomical Twilight 5:51 AM CST 6:20 PM CST
Moon 8:14 PM CST (12/31) 9:10 AM CST (12/31)
Length of Visible Light 10h 07m
Length of Day
9h 03m
Waning Gibbous, 90% of the Moon is Illuminated
Dec 31
Waning Gibbous
Jan 4
Last Quarter
Jan 11
New
Jan 18
First Quarter
Jan 26
Full

Hourly Weather History & Observations

Time (CST) Temp. Windchill Dew Point Humidity Pressure Visibility Wind Dir Wind Speed Gust Speed Precip Events Conditions
12:53 AM 33.1 °F 26.1 °F 24.1 °F 70% 29.98 in 10.0 mi SW 8.1 mph - N/A   Clear
1:53 AM 30.9 °F 23.5 °F 23.0 °F 72% 29.99 in 10.0 mi WSW 8.1 mph - N/A   Clear
2:53 AM 28.0 °F 21.7 °F 21.0 °F 75% 30.01 in 10.0 mi SW 5.8 mph - N/A   Clear
3:53 AM 28.0 °F 20.8 °F 19.9 °F 72% 30.05 in 10.0 mi SW 6.9 mph - N/A   Clear
4:53 AM 25.0 °F 19.3 °F 18.0 °F 75% 30.06 in 10.0 mi WSW 4.6 mph - N/A   Clear
5:53 AM 21.9 °F 15.7 °F 16.0 °F 78% 30.09 in 10.0 mi WSW 4.6 mph - N/A   Clear
6:53 AM 19.9 °F - 14.0 °F 78% 30.10 in 10.0 mi Calm Calm - N/A   Clear
7:17 AM 19.4 °F 14.3 °F 14.0 °F 80% 30.06 in 10.0 mi West 3.5 mph - N/A   Mostly Cloudy
7:40 AM 19.4 °F 12.8 °F 14.0 °F 80% 30.07 in 9.0 mi West 4.6 mph - N/A   Overcast
7:53 AM 19.0 °F 10.0 °F 14.0 °F 81% 30.12 in 8.0 mi West 6.9 mph - N/A   Overcast
8:53 AM 19.9 °F 13.4 °F 15.1 °F 81% 30.12 in 7.0 mi NW 4.6 mph - N/A   Overcast
9:53 AM 19.9 °F 11.1 °F 15.1 °F 81% 30.14 in 6.0 mi WNW 6.9 mph - N/A   Haze
10:53 AM 19.9 °F 9.3 °F 12.9 °F 74% 30.15 in 7.0 mi NNW 9.2 mph - N/A   Overcast
11:00 AM 19.4 °F 9.5 °F 12.2 °F 74% 30.11 in 9.0 mi NNW 8.1 mph - N/A   Mostly Cloudy
11:21 AM 19.4 °F 7.9 °F 12.2 °F 74% 30.10 in 10.0 mi NW 10.4 mph - N/A   Scattered Clouds
11:50 AM 21.2 °F 11.7 °F 12.2 °F 68% 30.10 in 10.0 mi NW 8.1 mph - N/A   Mostly Cloudy
11:53 AM 21.0 °F 10.6 °F 12.0 °F 68% 30.13 in 10.0 mi NNW 9.2 mph - N/A   Mostly Cloudy
12:01 PM 21.2 °F 12.6 °F 12.2 °F 68% 30.10 in 10.0 mi North 6.9 mph - N/A   Scattered Clouds
12:53 PM 21.0 °F 13.4 °F 12.0 °F 68% 30.12 in 10.0 mi WNW 5.8 mph - N/A   Clear
1:53 PM 21.0 °F 16.2 °F 10.9 °F 65% 30.13 in 10.0 mi WNW 3.5 mph - N/A   Clear
2:53 PM 21.9 °F 14.5 °F 12.0 °F 66% 30.13 in 10.0 mi West 5.8 mph - N/A   Clear
3:53 PM 21.0 °F 13.4 °F 10.0 °F 63% 30.14 in 10.0 mi WNW 5.8 mph - N/A   Clear
4:53 PM 18.0 °F 11.1 °F 7.0 °F 62% 30.15 in 10.0 mi WNW 4.6 mph - N/A   Clear
5:53 PM 16.0 °F - 7.0 °F 68% 30.17 in 10.0 mi Calm Calm - N/A   Clear
6:53 PM 9.0 °F - 3.0 °F 77% 30.20 in 8.0 mi Calm Calm - N/A   Clear
7:53 PM 6.1 °F - 3.0 °F 87% 30.22 in 6.0 mi Calm Calm - N/A   Clear
8:53 PM 6.1 °F - 1.0 °F 80% 30.22 in 6.0 mi Calm Calm - N/A   Haze
9:07 PM 6.8 °F - 1.4 °F 79% 30.18 in 2.5 mi Calm Calm - N/A   Haze
9:30 PM 5.0 °F - 1.4 °F 85% 30.19 in 6.0 mi Calm Calm - N/A   Clear
9:53 PM 3.9 °F - -0.9 °F 80% 30.25 in 7.0 mi Calm Calm - N/A   Clear
10:20 PM 1.4 °F - -0.4 °F 92% 30.20 in 1.8 mi Calm Calm - N/A   Clear
10:25 PM 1.4 °F - -0.4 °F 92% 30.20 in 3.0 mi Calm Calm - N/A   Clear
10:53 PM 1.9 °F - -2.9 °F 80% 30.27 in 7.0 mi Calm Calm - N/A   Clear
11:53 PM 1.0 °F - -2.9 °F 83% 30.28 in 9.0 mi Calm Calm - N/A   Clear